Montreal, Quebec

4:17 AM EDT on May 27, 2017 (GMT -0400)
Montreal-Pierre Elliott Trudeau Int'l Airport

Weather History for CYUL - June, 2013

Change the Weather History Date:

Sunday, June 2, 2013

  Actual Average Record
Temperature  
Mean Temperature 72 °F -  
Max Temperature 79 °F 74 °F 86 °F (2014)
Min Temperature 66 °F 54 °F 42 °F (2003)
Cooling Degree Days 8    
Growing Degree Days 22 (Base 50)    
Moisture  
Dew Point 65 °F    
Average Humidity 83    
Maximum Humidity 100    
Minimum Humidity 54    
Precipitation  
Precipitation 0.24 in 0.11 in - ()
Sea Level Pressure  
Sea Level Pressure 29.67 in    
Wind  
Wind Speed 8 mph ()    
Max Wind Speed 24 mph    
Max Gust Speed 32 mph    
Visibility 12.6 miles    
Events Rain , Thunderstorm    
Averages and records for this station are not official NWS values.
T = Trace of Precipitation, MM = Missing Value Source: Averaged Metar Reports

Daily Weather History Graph

Daily Weather History Graph

Search for Another Location

Airport or City:

Trip Planner

Search our weather history database for the weather conditions in past years. The results will help you decide how hot, cold, wet, or windy it might be!

Date:

Astronomy

Jun. 02, 2013 Rise Set
Actual Time 5:09 AM EDT 8:37 PM EDT
Civil Twilight 4:32 AM EDT 9:14 PM EDT
Nautical Twilight 3:43 AM EDT 10:03 PM EDT
Astronomical Twilight 2:40 AM EDT 11:06 PM EDT
Moon 1:50 AM EDT (6/2) 2:51 PM EDT (6/2)
Length of Visible Light 16h 42m
Length of Day
15h 28m
Waning Crescent, 31% of the Moon is Illuminated
Jun 2
Waning Crescent
Jun 8
New
Jun 16
First Quarter
Jun 23
Full
Jun 30
Last Quarter

Hourly Weather History & Observations

Time (EDT) Temp. Dew Point Humidity Pressure Visibility Wind Dir Wind Speed Gust Speed Precip Events Conditions
12:00 AM 69.8 °F 66.2 °F 88% 29.75 in 12.0 mi WSW 6.9 mph - N/A   Overcast
1:00 AM 69.8 °F 66.2 °F 88% 29.74 in 12.0 mi SW 9.2 mph - N/A   Mostly Cloudy
2:00 AM 69 °F 66 °F 86% 29.74 in 15 mi South 6.9 mph - -   Partly Cloudy
2:00 AM 69.8 °F 66.2 °F 88% 29.73 in 15.0 mi SSW 8.1 mph - N/A   Overcast
3:00 AM 68.0 °F 64.4 °F 88% 29.73 in 15.0 mi WSW 3.5 mph - N/A   Overcast
4:00 AM 68.0 °F 66.2 °F 94% 29.73 in 12.0 mi SSW 3.5 mph - N/A   Overcast
4:49 AM 68.0 °F 66.2 °F 94% 29.73 in 12.0 mi SSW 8.1 mph - N/A Rain Light Rain Showers
5:00 AM 68.0 °F 66.2 °F 94% 29.72 in 12.0 mi SSW 9.2 mph - N/A Rain Light Rain Showers
6:00 AM 68.0 °F 66.2 °F 94% 29.71 in 12.0 mi SSW 6.9 mph - N/A Rain Light Rain Showers
7:00 AM 66.2 °F 66.2 °F 100% 29.71 in 10.0 mi SSW 4.6 mph - N/A Rain Light Rain Showers
7:14 AM 66.2 °F 66.2 °F 100% 29.71 in 3.0 mi South 8.1 mph - N/A Rain , Thunderstorm Heavy Thunderstorms and Rain
7:36 AM 68.0 °F 66.2 °F 94% 29.73 in 6.0 mi SW 9.2 mph - N/A Rain Light Rain Showers
8:00 AM 68 °F 66 °F 92% 29.70 in 10 mi SSE 4.6 mph - - Thunderstorm Light Thunderstorm
8:00 AM 68.0 °F 66.2 °F 94% 29.70 in 10.0 mi SSE 4.6 mph - N/A   Overcast
8:39 AM 68.0 °F 66.2 °F 94% 29.68 in 8.0 mi SSE 6.9 mph - N/A Rain Light Rain Showers
8:44 AM 68.0 °F 66.2 °F 94% 29.70 in 5.0 mi WSW 10.4 mph - N/A Rain Light Rain Showers
8:56 AM 68.0 °F 66.2 °F 94% 29.68 in 7.0 mi SSE 6.9 mph - N/A Rain Light Rain Showers
9:00 AM 68.0 °F 66.2 °F 94% 29.68 in 8.0 mi SE 2.3 mph - N/A Rain Light Rain Showers
9:19 AM 68.0 °F 68.0 °F 100% 29.66 in 12.0 mi ENE 5.8 mph - N/A   Overcast
9:41 AM 69.8 °F 66.2 °F 88% 29.65 in 12.0 mi North 4.6 mph - N/A Rain Light Rain Showers
10:00 AM 68.0 °F 66.2 °F 94% 29.63 in 12.0 mi East 6.9 mph - N/A Rain Rain Showers
10:08 AM 69.8 °F 68.0 °F 94% 29.65 in 15.0 mi SE 3.5 mph - N/A   Mostly Cloudy
10:23 AM 69.8 °F 66.2 °F 88% 29.65 in 15.0 mi Calm Calm - N/A   Overcast
10:30 AM 69.8 °F 68.0 °F 94% 29.65 in 15.0 mi Variable 2.3 mph - N/A   Overcast
11:00 AM 71.6 °F 68.0 °F 88% 29.65 in 15.0 mi South 4.6 mph - N/A   Mostly Cloudy
12:00 PM 73.4 °F 66.2 °F 78% 29.66 in 15.0 mi SW 9.2 mph - N/A   Mostly Cloudy
1:00 PM 77.0 °F 68.0 °F 74% 29.65 in 15.0 mi WSW 12.7 mph 18.4 mph N/A   Scattered Clouds
2:00 PM 79 °F 67 °F 57% 29.63 in 15 mi SW 17.3 mph - -   Partly Cloudy
2:00 PM 78.8 °F 66.2 °F 65% 29.62 in 15.0 mi SW 18.4 mph - N/A   Mostly Cloudy
3:00 PM 78.8 °F 68.0 °F 69% 29.61 in 30.0 mi SW 18.4 mph 25.3 mph N/A   Overcast
4:00 PM 77.0 °F 64.4 °F 65% 29.61 in 15.0 mi SW 24.2 mph 32.2 mph N/A   Overcast
5:00 PM 77.0 °F 64.4 °F 65% 29.60 in 15.0 mi SW 19.6 mph 26.5 mph N/A   Mostly Cloudy
6:00 PM 77.0 °F 62.6 °F 61% 29.60 in 15.0 mi SW 19.6 mph - N/A   Mostly Cloudy
7:00 PM 75.2 °F 60.8 °F 61% 29.62 in 15.0 mi WSW 19.6 mph 28.8 mph N/A   Scattered Clouds
8:00 PM 73 °F 60 °F 54% 29.63 in 15 mi SW 21.9 mph - -   Scattered Clouds
8:00 PM 73.4 °F 59.0 °F 61% 29.62 in 15.0 mi SW 21.9 mph 29.9 mph N/A   Partly Cloudy
9:00 PM 71.6 °F 59.0 °F 64% 29.64 in 15.0 mi SW 21.9 mph 27.6 mph N/A   Partly Cloudy
10:00 PM 69.8 °F 59.0 °F 68% 29.67 in 15.0 mi SW 17.3 mph 25.3 mph N/A   Scattered Clouds
11:00 PM 68.0 °F 60.8 °F 78% 29.68 in 15.0 mi SW 16.1 mph 23.0 mph N/A Rain Light Rain Showers
11:17 PM 69.8 °F 60.8 °F 73% 29.69 in 15.0 mi SW 17.3 mph 26.5 mph N/A   Mostly Cloudy